Regional Weather Roundup
Issued by NWS Sioux Falls, SD

Home | Current Version | Previous Version | Graphics & Text | Print | Product List | Glossary On
Versions: 1 2 3 4 5 6 7 8 9 10 11 12 13 14 15 16 17 18 19 20 21 22 23 24 25 26 27 28 29 30 31 32 33 34 35 36 37 38 39 40 41 42 43 44 45 46 47 48 49 50
000
ASUS43 KFSD 231210
RWRFSD

WEATHER ROUNDUP FOR SE SOUTH DAKOTA/SW MINNESOTA/NW IOWA
NATIONAL WEATHER SERVICE SIOUX FALLS SD
700 AM CDT TUE AUG 23 2016

NOTE: "FAIR" INDICATES FEW OR NO CLOUDS BELOW 12,000 FEET WITH NO
SIGNIFICANT WEATHER AND OR OBSTRUCTIONS TO VISIBILITY.


SDZ038>040-050-052>070-231300-
SOUTHEAST SOUTH DAKOTA

CITY           SKY/WX    TMP DP  RH WIND       PRES   REMARKS
BROOKINGS      PTCLDY    64  60  87 S14       29.84R
CHAMBERLAIN    CLEAR     73  60  64 S15G25    29.74R
6HR MIN TEMP:  73; 6HR MAX TEMP:  80;

HURON          CLEAR     66  59  78 SE16G25   29.74S
6HR MIN TEMP:  66; 6HR MAX TEMP:  73;

MADISON        FAIR      63  63 100 S12G17    29.85S
MITCHELL       CLEAR     66  59  78 SE10      29.79R
6HR MIN TEMP:  66; 6HR MAX TEMP:  74;

SIOUX FALLS    CLOUDY    68  62  81 S10       29.87R
6HR MIN TEMP:  68; 6HR MAX TEMP:  73;

WINNER         FAIR      71  58  63 S21       29.74R
YANKTON        CLOUDY    70  59  68 S14G20    29.83S
$$

MNZ071-072-080-081-089-090-097-098-231300-
SOUTHWEST MINNESOTA

CITY           SKY/WX    TMP DP  RH WIND       PRES   REMARKS
JACKSON        PTCLDY    64  57  77 S9        29.95R
LUVERNE        PTCLDY    61  59  94 SE5       29.90S
MARSHALL       PTCLDY    67  61  81 S14       29.86R
6HR MIN TEMP:  67; 6HR MAX TEMP:  71;

MONTEVIDEO     CLEAR     66  61  82 SW10      29.85R
REDWOOD FALLS  MOCLDY    67  60  78 S14       29.88R
TRACY          PTCLDY    67  62  82 S16G23    29.87S
WINDOM         PTCLDY    66  59  77 S10G16    29.92S
WORTHINGTON    CLOUDY    66  60  81 S14       29.92R
$$

IAZ001>003-012>014-020>022-031-032-NEZ013-014-SDZ071-231300-
NORTHWEST IOWA

CITY           SKY/WX    TMP DP  RH WIND       PRES   REMARKS
CHEROKEE       CLOUDY    65  62  89 S8        29.94R
DENISON        PTCLDY    66  63  88 S8G17     29.95R
ESTHERVILLE    MOCLDY    61  60  97 S12       29.95S
LE MARS        PTCLDY    68  63  83 S13G20    29.91S
ORANGE CITY    PTCLDY    64  63  94 S10       29.91S
SHELDON        CLEAR     63  63 100 S13       29.90S
SIOUX CITY     CLOUDY    65  61  87 SE10      29.91R
6HR MIN TEMP:  65; 6HR MAX TEMP:  71;

SPENCER        PTCLDY    62  59  90 S9        29.94S
6HR MIN TEMP:  62; 6HR MAX TEMP:  66;

STORM LAKE     PTCLDY    63  61  94 S10       29.96S
$$

ABBREVIATIONS USED IN REMARKS
   TC - TEMPERATURE IN CELSIUS
  WCI - WIND CHILL INDEX
   HX - HEAT INDEX
  VSB - VISIBILITY





USA.gov is the U.S. government's official web portal to all federal, state and local government web resources and services.